CW4066 Weather Reports


time (UTC)temp
C
wind
direction
speed
KPH
gust
KPH
rain 1hr
cm
rain 24hr
cm
rain mn
cm
humidity
%
barometer
mb
20260906131058 20 0 1.6 11.3 0.00 0.00 0.00 99 1020.0
20260906130558 19 73 3.2 11.3 0.00 0.00 0.00 99 1020.1
20260906130103 19 78 3.2 11.3 0.00 0.00 0.00 99 1020.2
20260906125559 19 0 1.6 8.0 0.00 0.00 0.00 99 1020.2
20260906125058 19 350 1.6 11.3 0.00 0.00 0.00 98 1020.2
20260906124608 19 40 1.6 11.3 0.00 0.00 0.00 98 1020.0
20260906124058 18 60 1.6 9.7 0.00 0.00 0.00 98 1019.8
20260906123558 18 0 1.6 9.7 0.00 0.00 0.00 98 1019.8
20260906123104 18 43 0.0 4.8 0.00 0.00 0.00 98 1019.9
20260906122601 18 24 0.0 4.8 0.00 0.00 0.00 98 1020.0
20260906122058 18 0 0.0 1.6 0.00 0.00 0.00 98 1020.0
20260906121601 18 0 0.0 1.6 0.00 0.00 0.00 98 1019.8
20260906121058 18 0 0.0 1.6 0.00 0.00 0.00 98 1019.6
20260906120559 18 0 0.0 1.6 0.00 0.00 0.00 98 1019.5
20260906120115 18 0 0.0 1.6 0.00 0.00 0.00 97 1019.4
20260906115558 18 0 0.0 3.2 0.00 0.00 0.00 97 1019.2
20260906115058 18 0 0.0 3.2 0.00 0.00 0.00 97 1019.1
20260906114607 18 0 0.0 3.2 0.00 0.00 0.00 97 1019.1
20260906114057 18 0 0.0 3.2 0.00 0.00 0.00 97 1019.1
20260906113556 18 0 0.0 1.6 0.00 0.00 0.00 97 1018.9
20260906113103 18 0 0.0 1.6 0.00 0.00 0.00 97 1018.7
20260906112558 18 0 0.0 3.2 0.00 0.00 0.00 97 1018.8
20260906112058 18 0 0.0 3.2 0.00 0.00 0.00 97 1018.7
20260906111612 18 17 0.0 3.2 0.00 0.00 0.00 97 1018.6
20260906111058 18 0 0.0 3.2 0.00 0.00 0.00 97 1018.6
20260906110558 18 0 0.0 1.6 0.00 0.00 0.00 97 1018.6
20260906105558 18 0 0.0 3.2 0.00 0.00 0.00 97 1018.6
20260906105057 18 0 0.0 3.2 0.00 0.00 0.00 97 1018.6
20260906104605 18 25 0.0 3.2 0.00 0.00 0.00 97 1018.6
20260906104055 18 0 0.0 3.2 0.00 0.00 0.00 97 1018.6
20260906103557 18 25 0.0 1.6 0.00 0.00 0.00 97 1018.3
20260906103105 18 0 0.0 1.6 0.00 0.00 0.00 96 1018.1
20260906102555 18 0 0.0 1.6 0.00 0.00 0.00 96 1018.1
20260906102058 18 25 0.0 1.6 0.00 0.00 0.00 96 1018.1
20260906101604 18 0 0.0 1.6 0.00 0.00 0.00 96 1018.1
20260906101059 18 0 0.0 1.6 0.00 0.00 0.00 96 1018.2
20260906100558 18 25 0.0 3.2 0.00 0.00 0.00 96 1018.1
20260906100108 18 25 0.0 3.2 0.00 0.00 0.00 96 1018.2
20260906095559 18 0 0.0 1.6 0.00 0.00 0.00 96 1018.1
20260906095059 18 0 0.0 3.2 0.00 0.00 0.00 96 1018.0
20260906094604 18 0 0.0 3.2 0.00 0.00 0.00 96 1017.9
20260906094057 18 0 0.0 3.2 0.00 0.00 0.00 96 1017.8
20260906093558 18 37 0.0 3.2 0.00 0.00 0.00 95 1018.0
20260906093100 19 0 0.0 0.0 0.00 0.00 0.00 95 1018.0
20260906092558 19 0 0.0 0.0 0.00 0.00 0.00 95 1017.9
20260906092058 19 0 0.0 0.0 0.00 0.00 0.00 95 1017.8
20260906091617 19 0 0.0 0.0 0.00 0.00 0.00 95 1017.8
20260906091059 19 0 0.0 0.0 0.00 0.00 0.00 95 1017.8
20260906090557 19 0 0.0 0.0 0.00 0.00 0.00 95 1017.9
20260906090107 19 0 0.0 0.0 0.00 0.00 0.00 94 1017.9
20260906085555 19 0 0.0 0.0 0.00 0.00 0.00 94 1017.8
20260906085100 19 0 0.0 0.0 0.00 0.00 0.00 94 1017.8
20260906084601 19 0 0.0 0.0 0.00 0.00 0.00 94 1017.8
20260906084059 19 0 0.0 0.0 0.00 0.00 0.00 94 1017.8
20260906083558 19 0 0.0 0.0 0.00 0.00 0.00 94 1017.8
20260906083104 19 0 0.0 0.0 0.00 0.00 0.00 94 1017.8
20260906082558 19 0 0.0 0.0 0.00 0.00 0.00 93 1017.8
20260906082102 19 0 0.0 0.0 0.00 0.00 0.00 93 1017.9
20260906081605 19 0 0.0 0.0 0.00 0.00 0.00 93 1017.8
20260906081058 20 0 0.0 0.0 0.00 0.00 0.00 92 1017.9
20260906080558 20 0 0.0 0.0 0.00 0.00 0.00 92 1018.0
20260906080111 20 0 0.0 0.0 0.00 0.00 0.00 92 1018.0
20260906075554 20 0 0.0 0.0 0.00 0.00 0.00 92 1018.1
20260906075054 20 0 0.0 0.0 0.00 0.00 0.00 92 1017.9
20260906074604 20 0 0.0 0.0 0.00 0.00 0.00 92 1018.1
20260906074059 20 0 0.0 0.0 0.00 0.00 0.00 92 1017.9
20260906073559 20 0 0.0 0.0 0.00 0.00 0.00 91 1017.9
20260906073102 20 0 0.0 0.0 0.00 0.00 0.00 91 1017.9
20260906072558 20 0 0.0 0.0 0.00 0.00 0.00 91 1018.0
20260906072058 20 0 0.0 0.0 0.00 0.00 0.00 91 1017.9
20260906071604 20 0 0.0 0.0 0.00 0.00 0.00 91 1018.0
20260906071059 20 0 0.0 0.0 0.00 0.00 0.00 91 1018.0
20260906070558 20 0 0.0 0.0 0.00 0.00 0.00 91 1018.1
20260906070108 20 0 0.0 1.6 0.00 0.00 0.00 91 1018.1
20260906065559 20 0 0.0 3.2 0.00 0.00 0.00 91 1018.1
20260906065058 20 0 0.0 3.2 0.00 0.00 0.00 91 1018.1
20260906064603 20 0 0.0 3.2 0.00 0.00 0.00 91 1018.0
20260906064058 21 0 0.0 3.2 0.00 0.00 0.00 91 1018.1
20260906063558 21 0 0.0 3.2 0.00 0.00 0.00 90 1018.1
20260906063103 21 0 0.0 1.6 0.00 0.00 0.00 90 1018.0
20260906062600 21 0 0.0 1.6 0.00 0.00 0.00 90 1018.0
20260906062057 21 0 0.0 3.2 0.00 0.00 0.00 90 1018.1
20260906061601 21 90 0.0 3.2 0.00 0.00 0.00 90 1018.0
20260906061100 21 5 0.0 3.2 0.00 0.00 0.00 90 1018.0
20260906060554 21 0 0.0 3.2 0.00 0.00 0.00 90 1017.9
20260906060108 21 0 0.0 1.6 0.00 0.00 0.00 90 1018.0
20260906055558 21 0 0.0 1.6 0.00 0.00 0.00 90 1018.0
20260906055058 21 0 0.0 3.2 0.00 0.00 0.00 90 1018.1
20260906054609 21 0 0.0 4.8 0.00 0.00 0.00 90 1018.2
20260906054059 21 54 0.0 4.8 0.00 0.00 0.00 90 1018.0
20260906053558 21 65 1.6 4.8 0.00 0.00 0.00 90 1018.0
20260906053101 21 0 0.0 11.3 0.00 0.00 0.00 90 1018.0
20260906052557 21 0 0.0 11.3 0.00 0.00 0.00 90 1018.0
20260906052058 21 42 0.0 8.0 0.00 0.00 0.00 90 1017.9
20260906051608 21 104 1.6 8.0 0.00 0.00 0.00 90 1017.9
20260906051057 21 37 1.6 6.4 0.00 0.00 0.00 90 1017.8
20260906050600 21 352 0.0 8.0 0.00 0.00 0.00 91 1017.9
20260906050107 21 0 1.6 8.0 0.00 0.00 0.00 91 1017.8
20260906045602 21 0 0.0 6.4 0.00 0.00 0.00 91 1017.8
20260906045058 21 343 0.0 4.8 0.00 0.00 0.00 91 1017.8
20260906044605 21 0 0.0 4.8 0.00 0.00 0.00 91 1017.7
20260906044058 21 348 0.0 3.2 0.00 0.00 0.00 91 1017.8
20260906043557 21 290 0.0 4.8 0.00 0.00 0.00 91 1017.7
20260906043113 21 360 0.0 4.8 0.00 0.00 0.00 91 1017.6
20260906042558 21 336 1.6 3.2 0.00 0.00 0.00 91 1017.6
20260906042058 21 0 0.0 4.8 0.00 0.00 0.00 90 1017.5
20260906041619 21 0 0.0 4.8 0.00 0.00 0.00 90 1017.4
20260906041059 21 352 1.6 4.8 0.00 0.00 0.00 90 1017.3
20260906040558 21 0 0.0 3.2 0.00 0.00 0.00 90 1017.2
20260906040118 21 0 0.0 4.8 0.00 0.00 0.00 90 1017.2
20260906035559 21 0 0.0 6.4 0.00 0.00 0.00 90 1017.1
20260906035057 21 41 1.6 6.4 0.00 0.00 0.00 89 1017.1
20260906034603 21 98 0.0 3.2 0.00 0.00 0.00 89 1017.1
20260906034056 21 0 0.0 9.7 0.00 0.00 0.00 89 1017.0
20260906033559 21 0 0.0 16.1 0.00 0.00 0.00 89 1017.0
20260906033104 21 26 1.6 16.1 0.00 0.00 0.00 89 1016.8
20260906032601 21 332 3.2 16.1 0.00 0.00 0.00 89 1016.8
20260906032058 21 68 1.6 9.7 0.00 0.00 0.00 88 1016.8
20260906031609 21 45 1.6 8.0 0.00 0.00 0.00 88 1016.9
20260906031057 21 55 0.0 4.8 0.00 0.00 0.00 88 1016.8
20260906030557 21 0 0.0 11.3 0.00 0.00 0.00 87 1016.8
20260906030116 21 5 1.6 11.3 0.00 0.00 0.00 87 1016.9
20260906025556 21 333 1.6 8.0 0.00 0.00 0.00 87 1016.8
20260906025057 21 21 1.6 8.0 0.00 0.00 0.00 86 1016.9
20260906024624 21 77 1.6 11.3 0.00 0.00 0.00 86 1016.9
20260906024056 22 13 1.6 17.7 0.00 0.00 0.00 86 1017.0
20260906023558 22 59 3.2 17.7 0.00 0.00 0.00 86 1017.1
20260906023104 22 41 1.6 9.7 0.00 0.00 0.00 86 1017.0
20260906022600 22 87 0.0 11.3 0.00 0.00 0.00 86 1017.0
20260906022056 22 340 3.2 11.3 0.00 0.00 0.00 86 1016.9
20260906021611 22 89 1.6 14.5 0.00 0.00 0.00 86 1016.9
20260906021056 22 31 1.6 14.5 0.00 0.00 0.00 86 1016.9
20260906020556 22 61 1.6 14.5 0.00 0.00 0.00 85 1016.9
20260906020103 22 352 1.6 16.1 0.00 0.00 0.00 85 1016.8
20260906015558 22 45 3.2 16.1 0.00 0.00 0.00 85 1016.9
20260906015056 22 24 1.6 9.7 0.00 0.00 0.00 85 1017.0
20260906014609 22 5 1.6 9.7 0.00 0.00 0.00 85 1017.0
20260906014056 22 101 3.2 14.5 0.00 0.00 0.00 84 1017.0
20260906013556 22 352 3.2 14.5 0.00 0.00 0.00 84 1017.0
20260906013103 22 22 4.8 14.5 0.00 0.00 0.00 84 1017.0
20260906012558 22 342 3.2 14.5 0.00 0.00 0.00 84 1017.1
20260906012059 22 85 3.2 12.9 0.00 0.00 0.00 84 1017.0
20260906011605 22 44 4.8 12.9 0.00 0.00 0.00 84 1016.9
20260906011056 22 67 3.2 9.7 0.00 0.00 0.00 84 1017.0
20260906010556 22 38 1.6 9.7 0.00 0.00 0.00 84 1017.1
20260906010119 22 338 3.2 9.7 0.00 0.00 0.00 84 1016.9
20260906005556 22 67 3.2 8.0 0.00 0.00 0.00 84 1016.8
20260906005056 22 0 3.2 25.7 0.00 0.00 0.00 83 1016.8
20260906004610 22 316 4.8 25.7 0.00 0.00 0.00 83 1016.8
20260906004056 22 61 1.6 19.3 0.00 0.00 0.00 83 1016.8
20260906003557 22 284 3.2 19.3 0.00 0.00 0.00 83 1016.7
20260906003120 22 26 3.2 12.9 0.00 0.00 0.00 83 1016.5
20260906002557 22 23 4.8 14.5 0.00 0.00 0.00 83 1016.5
20260906002059 22 5 3.2 20.9 0.00 0.00 0.00 82 1016.6
20260906001610 22 46 3.2 20.9 0.00 0.00 0.00 82 1016.5
20260906001056 23 42 3.2 20.9 0.00 0.00 0.00 81 1016.4
20260906000556 23 5 4.8 20.9 0.00 0.00 0.00 81 1016.4
20260906000106 23 11 3.2 19.3 0.00 0.00 0.00 80 1016.2
20260905235556 23 26 3.2 20.9 0.00 0.00 0.00 80 1016.2
20260905235056 23 17 0.0 20.9 0.00 0.00 0.00 79 1016.1
20260905234609 23 40 3.2 17.7 0.00 0.00 0.00 79 1016.2
20260905234057 24 61 4.8 12.9 0.00 0.00 0.00 78 1016.1
20260905233558 24 321 3.2 11.3 0.00 0.00 0.00 78 1016.2
20260905233102 24 29 1.6 20.9 0.00 0.00 0.00 78 1016.0
20260905232556 25 32 1.6 20.9 0.00 0.00 0.00 77 1016.1
20260905232058 25 56 4.8 20.9 0.00 0.00 0.00 77 1016.1
20260905231603 25 352 3.2 16.1 0.00 0.00 0.00 76 1016.0
20260905231056 25 67 1.6 11.3 0.00 0.00 0.00 75 1015.9
20260905230557 25 53 1.6 11.3 0.00 0.00 0.00 75 1015.9
20260905230111 25 352 3.2 17.7 0.00 0.00 0.00 74 1015.8
20260905225558 25 51 3.2 22.5 0.00 0.00 0.00 74 1015.7
20260905225057 26 99 4.8 22.5 0.00 0.00 0.00 74 1015.6
20260905224600 26 24 3.2 22.5 0.00 0.00 0.00 74 1015.5
20260905224058 26 50 4.8 17.7 0.00 0.00 0.00 74 1015.5
20260905223558 26 32 4.8 14.5 0.00 0.00 0.00 74 1015.6
20260905223104 26 287 3.2 12.9 0.00 0.00 0.00 74 1015.5
20260905222558 26 99 1.6 22.5 0.00 0.00 0.00 73 1015.5
20260905222100 26 315 4.8 22.5 0.00 0.00 0.00 72 1015.4
20260905221600 26 137 6.4 16.1 0.00 0.00 0.00 71 1015.3
20260905221058 26 57 1.6 16.1 0.00 0.00 0.00 71 1015.1
20260905220557 26 24 3.2 12.9 0.00 0.00 0.00 72 1015.2
20260905220110 26 351 1.6 9.7 0.00 0.00 0.00 72 1015.4
20260905215558 26 350 3.2 9.7 0.00 0.00 0.00 71 1015.5
20260905215057 26 352 3.2 6.4 0.00 0.00 0.00 72 1015.5
20260905214607 26 315 0.0 4.8 0.00 0.00 0.00 73 1015.5
20260905214058 26 0 1.6 8.0 0.00 0.00 0.00 71 1015.4
20260905213558 26 306 1.6 11.3 0.00 0.00 0.00 72 1015.5
20260905213105 26 9 1.6 11.3 0.00 0.00 0.00 72 1015.3
20260905212559 26 107 3.2 11.3 0.00 0.00 0.00 72 1015.3
20260905212058 26 51 1.6 8.0 0.00 0.00 0.00 72 1015.4
20260905211608 26 339 1.6 8.0 0.00 0.00 0.00 72 1015.4
20260905211054 26 0 1.6 6.4 0.00 0.00 0.00 74 1015.5
20260905210558 26 212 1.6 6.4 0.00 0.00 0.00 74 1015.4
20260905205558 26 56 1.6 4.8 0.00 0.00 0.00 73 1015.5
20260905205058 26 98 1.6 17.7 0.00 0.00 0.00 73 1015.5
20260905204609 26 309 1.6 17.7 0.00 0.00 0.00 73 1015.6
20260905204059 26 5 4.8 17.7 0.00 0.00 0.00 73 1015.7
20260905203558 26 316 1.6 9.7 0.00 0.00 0.00 74 1015.7
20260905203103 26 317 1.6 9.7 0.00 0.00 0.00 75 1015.7
20260905202557 26 352 1.6 9.7 0.00 0.00 0.00 76 1015.7
20260905202054 26 126 3.2 9.7 0.00 0.00 0.00 77 1015.7
20260905201605 26 352 3.2 9.7 0.00 0.00 0.00 79 1015.7
20260905201059 25 22 1.6 8.0 0.00 0.00 0.00 77 1015.7
20260905200601 25 0 3.2 8.0 0.00 0.00 0.00 77 1015.7
20260905200113 25 0 1.6 6.4 0.00 0.00 0.00 77 1015.7
20260905195557 26 313 1.6 9.7 0.00 0.00 0.00 77 1015.6
20260905195056 25 74 1.6 9.7 0.00 0.00 0.00 77 1015.7
20260905194603 26 0 1.6 9.7 0.00 0.00 0.00 78 1015.7
20260905194055 25 0 0.0 6.4 0.00 0.00 0.00 77 1015.7
20260905193556 25 5 3.2 8.0 0.00 0.00 0.00 77 1015.8
20260905193111 26 32 1.6 8.0 0.00 0.00 0.00 78 1015.8
20260905192558 26 88 3.2 11.3 0.00 0.00 0.00 77 1015.9
20260905192055 26 336 3.2 11.3 0.00 0.00 0.00 77 1015.9
20260905191611 26 326 1.6 6.4 0.00 0.00 0.00 77 1016.0
20260905191054 26 340 1.6 8.0 0.00 0.00 0.00 76 1016.0
20260905190558 26 172 3.2 9.7 0.00 0.00 0.00 76 1015.9
20260905190107 26 60 1.6 9.7 0.00 0.00 0.00 76 1016.0
20260905185555 26 315 3.2 9.7 0.00 0.00 0.00 76 1016.1
20260905185056 26 0 1.6 9.7 0.00 0.00 0.00 76 1016.1
20260905184612 26 360 3.2 11.3 0.00 0.00 0.00 75 1016.1
20260905184056 26 15 1.6 11.3 0.00 0.00 0.00 75 1016.1
20260905183557 26 326 1.6 9.7 0.00 0.00 0.00 74 1016.1
20260905183106 26 37 3.2 14.5 0.00 0.00 0.00 74 1016.2
20260905182556 26 318 3.2 14.5 0.00 0.00 0.00 74 1016.2
20260905182056 27 324 3.2 14.5 0.00 0.00 0.00 74 1016.2
20260905181608 27 342 3.2 8.0 0.00 0.00 0.00 73 1016.1
20260905181057 27 340 1.6 8.0 0.00 0.00 0.00 72 1016.1
20260905180600 27 17 1.6 14.5 0.00 0.00 0.00 71 1016.1
20260905180108 27 343 3.2 14.5 0.00 0.00 0.00 70 1016.0
20260905175556 27 32 3.2 14.5 0.00 0.00 0.00 71 1015.9
20260905175055 27 313 1.6 11.3 0.00 0.00 0.00 72 1016.1
20260905174605 27 48 1.6 12.9 0.00 0.00 0.00 71 1015.8
20260905174057 27 25 6.4 14.5 0.00 0.00 0.00 72 1015.9
20260905173557 27 352 3.2 16.1 0.00 0.00 0.00 73 1015.8
20260905173103 27 73 3.2 16.1 0.00 0.00 0.00 73 1015.8
20260905172556 27 191 3.2 16.1 0.00 0.00 0.00 72 1015.9
20260905172056 27 344 3.2 16.1 0.00 0.00 0.00 73 1015.9
20260905171607 27 64 3.2 12.9 0.00 0.00 0.00 72 1015.9
20260905171057 27 91 3.2 9.7 0.00 0.00 0.00 72 1015.9
20260905170556 27 306 3.2 8.0 0.00 0.00 0.00 71 1016.0
20260905170114 28 328 1.6 8.0 0.00 0.00 0.00 71 1015.9
20260905165555 28 37 1.6 9.7 0.00 0.00 0.00 71 1015.9
20260905165055 28 327 1.6 9.7 0.00 0.00 0.00 70 1015.9
20260905164603 28 338 3.2 6.4 0.00 0.00 0.00 71 1016.0
20260905164056 28 281 1.6 6.4 0.00 0.00 0.00 72 1016.0
20260905163556 28 279 1.6 6.4 0.00 0.00 0.00 72 1016.0
20260905163114 28 346 1.6 6.4 0.00 0.00 0.00 72 1016.0
20260905162558 28 352 1.6 11.3 0.00 0.00 0.00 72 1016.0
20260905162055 27 19 1.6 11.3 0.00 0.00 0.00 73 1015.9
20260905161605 27 123 1.6 8.0 0.00 0.00 0.00 73 1015.9
20260905161056 27 40 1.6 9.7 0.00 0.00 0.00 74 1016.0
20260905160555 27 313 3.2 11.3 0.00 0.00 0.00 74 1016.0
20260905160107 27 25 3.2 11.3 0.00 0.00 0.00 76 1015.9
20260905155556 27 57 3.2 14.5 0.00 0.00 0.00 75 1015.9
20260905155057 26 0 3.2 14.5 0.00 0.00 0.00 77 1015.8
20260905154605 26 287 4.8 14.5 0.00 0.00 0.00 78 1015.7
20260905154056 26 336 1.6 6.4 0.00 0.00 0.00 81 1015.7
20260905153557 26 48 1.6 6.4 0.00 0.00 0.00 84 1015.8
20260905153104 25 19 1.6 9.7 0.00 0.00 0.00 83 1015.8
20260905152557 25 86 1.6 14.5 0.00 0.00 0.00 84 1015.7
20260905152055 25 325 3.2 14.5 0.00 0.00 0.00 83 1015.7
20260905151606 25 178 4.8 14.5 0.00 0.00 0.00 84 1015.6
20260905151057 25 62 4.8 12.9 0.00 0.00 0.00 84 1015.5
20260905150556 25 346 1.6 14.5 0.00 0.00 0.00 86 1015.4
20260905150118 25 61 1.6 14.5 0.00 0.00 0.00 85 1015.4
20260905145557 25 28 4.8 16.1 0.00 0.03 0.00 85 1015.5
20260905145056 25 114 6.4 16.1 0.00 0.03 0.00 87 1015.5
20260905144609 24 339 1.6 12.9 0.00 0.03 0.00 87 1015.4
20260905144057 24 5 3.2 12.9 0.00 0.03 0.00 88 1015.4
20260905143558 24 0 3.2 8.0 0.00 0.03 0.00 90 1015.3
20260905143115 24 45 0.0 9.7 0.00 0.03 0.00 92 1015.3
20260905142558 23 360 1.6 12.9 0.00 0.03 0.00 92 1015.3
20260905142057 23 32 3.2 12.9 0.00 0.03 0.00 93 1015.5
20260905141605 23 340 3.2 12.9 0.00 0.03 0.00 94 1015.3
20260905141059 23 47 3.2 14.5 0.00 0.03 0.00 95 1015.2
20260905140558 23 9 1.6 14.5 0.00 0.03 0.00 96 1015.3
20260905140110 23 75 3.2 14.5 0.00 0.03 0.00 96 1015.1
20260905135556 22 40 1.6 14.5 0.00 0.03 0.00 96 1015.1
20260905135055 22 22 3.2 14.5 0.00 0.03 0.00 96 1015.1
20260905134611 22 352 1.6 9.7 0.00 0.03 0.00 96 1015.1
20260905134054 22 352 1.6 4.8 0.00 0.03 0.00 96 1015.1
20260905133557 22 35 1.6 9.7 0.00 0.03 0.00 96 1015.3
20260905133106 22 36 1.6 9.7 0.00 0.03 0.00 96 1015.2
20260905132559 22 299 3.2 11.3 0.00 0.03 0.00 96 1015.4
20260905132056 22 327 1.6 11.3 0.00 0.03 0.00 97 1015.4
20260905131605 22 352 3.2 11.3 0.00 0.03 0.00 97 1015.5